パンスターズ-フルス彗星

407P/PanSTARRS-Fuls (2013)

English version
Home page
Updated on December 11, 2020

---------------------------------------------------------------------

・ プロフィール

符号 407P/2013 J4
発見日 2013年5月5日
発見光度 21.0等
発見者 Pan-STARRS 1 telescope (Haleakala)

・ 写真集

・ 軌道要素

Epoch 2013 Aug. 16.0 TT = JDT 2456520.5                                         
T 2013 Aug. 27.87520 TT                                 Rudenko                 
q   2.1218407            (2000.0)            P               Q                  
n   0.15363776     Peri.   92.11798     -0.98895573     -0.12190673             
a   3.4525296      Node    80.88755     +0.07725969     -0.90937947             
e   0.3854243      Incl.    4.89733     +0.12648125     -0.39770308             
P   6.42                                                                        
From 678 observations 2013 May 5-2020 June 12, mean residual 0".6.              

・ 光度変化

        m1 = 14.5 + 5 logΔ + 10.0 log r

---------------------------------------------------------------------

軌道要素はM.P.E.C. 2020-V68に掲載されたものです。
光度グラフはComet for Windowsで作成したものです。

---------------------------------------------------------------------

Copyright(C) Seiichi Yoshida (comet@aerith.net). All rights reserved.